• In Russia
  • List of Countries
  • For 7 days
  • Water Temperature
  • Satellite Maps
  • Weather Map
  • Weather Widgets
  • user-avatar
    Login

    Hourly Weather Klagenfurt

    Today, 9 December, Friday

    Time Temperature Precipitation Wind Pressure Humidity
    00:00 +1°C° 0 mm 1 mps 698 mmHg 51%
    01:00 +1°C° 0 mm 1 mps 698 mmHg 51%
    02:00 +1°C° 0 mm 1 mps 698 mmHg 50%
    03:00 +1°C° 0 mm 1 mps 697 mmHg 50%
    04:00 +1°C° 0 mm 1 mps 697 mmHg 49%
    05:00 +1°C° 0 mm 1 mps 697 mmHg 50%
    06:00 0°C° 0 mm 1 mps 697 mmHg 51%
    07:00 0°C° 0 mm 1 mps 697 mmHg 52%
    08:00 +2°C° 0 mm 1 mps 697 mmHg 49%
    09:00 +3°C° 0 mm 1 mps 698 mmHg 47%
    10:00 +5°C° 0 mm 1 mps 698 mmHg 44%
    11:00 +6°C° 0 mm 1 mps 698 mmHg 45%
    12:00 +7°C° 0 mm 1 mps 698 mmHg 46%
    13:00 +8°C° 0 mm 1 mps 698 mmHg 47%
    14:00 +6°C° 0 mm 1 mps 698 mmHg 54%
    15:00 +4°C° 0 mm 1 mps 697 mmHg 61%
    16:00 +2°C° 0 mm 1 mps 696 mmHg 68%
    17:00 +1°C° 0 mm 1 mps 696 mmHg 68%
    18:00 +1°C° 0 mm 1 mps 696 mmHg 68%
    19:00 0°C° 0 mm 1 mps 696 mmHg 68%
    20:00 0°C° 0 mm 1 mps 696 mmHg 66%
    21:00 0°C° 0 mm 1 mps 696 mmHg 65%
    22:00 0°C° 0 mm 1 mps 696 mmHg 63%
    23:00 0°C° 0 mm 1 mps 696 mmHg 62%

    Tomorrow, 10 December, Saturday

    Time Temperature Precipitation Wind Pressure Humidity
    00:00 -1°C° 0 mm 0 mps 696 mmHg 61%
    01:00 -1°C° 0 mm 0 mps 696 mmHg 60%
    02:00 -1°C° 0 mm 0 mps 695 mmHg 60%
    03:00 -1°C° 0 mm 0 mps 695 mmHg 59%
    04:00 -1°C° 0 mm 0 mps 695 mmHg 59%
    05:00 -1°C° 0 mm 0 mps 694 mmHg 59%
    06:00 -1°C° 0 mm 0 mps 694 mmHg 59%
    07:00 -1°C° 0 mm 0 mps 694 mmHg 59%
    08:00 +2°C° 0 mm 1 mps 695 mmHg 54%
    09:00 +4°C° 0 mm 1 mps 695 mmHg 50%
    10:00 +6°C° 0 mm 1 mps 695 mmHg 45%
    11:00 +7°C° 0 mm 1 mps 695 mmHg 46%
    12:00 +8°C° 0 mm 1 mps 695 mmHg 46%
    13:00 +9°C° 0 mm 1 mps 695 mmHg 47%
    14:00 +7°C° 0 mm 1 mps 695 mmHg 55%
    15:00 +5°C° 0 mm 1 mps 694 mmHg 62%
    16:00 +2°C° 0 mm 1 mps 693 mmHg 70%
    17:00 +2°C° 0 mm 1 mps 693 mmHg 71%
    18:00 +2°C° 0 mm 1 mps 693 mmHg 73%
    19:00 +1°C° 0 mm 1 mps 693 mmHg 75%
    20:00 +1°C° 0 mm 1 mps 693 mmHg 73%
    21:00 +1°C° 0 mm 1 mps 693 mmHg 71%
    22:00 +1°C° 0 mm 1 mps 692 mmHg 69%
    23:00 +1°C° 0 mm 1 mps 692 mmHg 68%

    Day after tomorrow, 11 December, Sunday

    Time Temperature Precipitation Wind Pressure Humidity
    00:00 +1°C° 0 mm 1 mps 692 mmHg 68%
    01:00 +1°C° 0 mm 1 mps 692 mmHg 67%
    02:00 +1°C° 0 mm 1 mps 691 mmHg 66%
    03:00 +1°C° 0 mm 1 mps 691 mmHg 66%
    04:00 +1°C° 0 mm 1 mps 690 mmHg 65%
    05:00 +1°C° 0 mm 1 mps 690 mmHg 65%
    06:00 +1°C° 0 mm 1 mps 690 mmHg 66%
    07:00 +1°C° 0 mm 1 mps 690 mmHg 66%
    08:00 +2°C° 0 mm 1 mps 690 mmHg 63%
    09:00 +4°C° 0 mm 1 mps 691 mmHg 61%
    10:00 +5°C° 0 mm 1 mps 691 mmHg 58%
    11:00 +6°C° 0 mm 1 mps 691 mmHg 59%
    12:00 +7°C° 0 mm 1 mps 691 mmHg 59%
    13:00 +8°C° 0 mm 1 mps 691 mmHg 59%
    14:00 +6°C° 0 mm 1 mps 690 mmHg 66%
    15:00 +4°C° 0 mm 1 mps 690 mmHg 73%
    16:00 +3°C° 0 mm 1 mps 689 mmHg 79%
    17:00 +2°C° 0 mm 1 mps 689 mmHg 81%
    18:00 +1°C° 0 mm 1 mps 690 mmHg 82%
    19:00 +1°C° 0 mm 1 mps 690 mmHg 84%
    20:00 +1°C° 0 mm 1 mps 690 mmHg 84%
    21:00 +1°C° 0 mm 1 mps 690 mmHg 85%
    22:00 0°C° 0 mm 1 mps 690 mmHg 86%
    23:00 0°C° 0 mm 1 mps 690 mmHg 86%

    12 December, Monday

    Time Temperature Precipitation Wind Pressure Humidity
    00:00 0°C° 0 mm 1 mps 690 mmHg 87%
    01:00 +1°C° 0 mm 1 mps 690 mmHg 88%
    02:00 +1°C° 0 mm 1 mps 690 mmHg 87%
    03:00 +1°C° 0 mm 1 mps 690 mmHg 87%
    04:00 +1°C° 0 mm 1 mps 690 mmHg 87%
    05:00 +1°C° 0 mm 1 mps 690 mmHg 87%
    06:00 +1°C° 0 mm 1 mps 690 mmHg 87%
    07:00 +1°C° 0 mm 1 mps 690 mmHg 88%
    08:00 +2°C° 0 mm 1 mps 691 mmHg 83%
    09:00 +3°C° 0 mm 1 mps 691 mmHg 78%
    10:00 +4°C° 0 mm 1 mps 692 mmHg 73%
    11:00 +5°C° 0 mm 1 mps 692 mmHg 72%
    12:00 +5°C° 0 mm 1 mps 692 mmHg 70%
    13:00 +6°C° 0 mm 1 mps 692 mmHg 68%
    14:00 +4°C° 0 mm 1 mps 692 mmHg 75%
    15:00 +3°C° 0 mm 1 mps 691 mmHg 83%
    16:00 +1°C° 0 mm 1 mps 691 mmHg 90%
    17:00 +1°C° 0 mm 1 mps 691 mmHg 90%
    18:00 0°C° 0 mm 1 mps 692 mmHg 91%
    19:00 0°C° 0 mm 1 mps 692 mmHg 91%
    20:00 0°C° 0 mm 1 mps 692 mmHg 90%
    21:00 0°C° 0 mm 1 mps 692 mmHg 90%
    22:00 0°C° 0 mm 1 mps 692 mmHg 90%
    23:00 0°C° 0 mm 1 mps 692 mmHg 89%

    13 December, Tuesday

    Time Temperature Precipitation Wind Pressure Humidity
    00:00 0°C° 0 mm 1 mps 692 mmHg 88%
    01:00 0°C° 0 mm 1 mps 692 mmHg 87%
    02:00 -1°C° 0 mm 0 mps 692 mmHg 87%
    03:00 -1°C° 0 mm 0 mps 692 mmHg 87%
    04:00 -2°C° 0 mm 0 mps 691 mmHg 86%
    05:00 -2°C° 0 mm 0 mps 691 mmHg 86%
    06:00 -2°C° 0 mm 0 mps 692 mmHg 86%
    07:00 -2°C° 0 mm 0 mps 692 mmHg 85%
    08:00 0°C° 0 mm 0 mps 692 mmHg 78%
    09:00 +1°C° 0 mm 0 mps 693 mmHg 71%
    10:00 +3°C° 0 mm 0 mps 694 mmHg 64%
    11:00 +4°C° 0 mm 0 mps 694 mmHg 62%
    12:00 +4°C° 0 mm 0 mps 694 mmHg 59%
    13:00 +5°C° 0 mm 0 mps 693 mmHg 57%
    14:00 +3°C° 0 mm 0 mps 693 mmHg 66%
    15:00 +1°C° 0 mm 0 mps 693 mmHg 76%
    16:00 -1°C° 0 mm 0 mps 692 mmHg 85%
    17:00 -1°C° 0 mm 0 mps 692 mmHg 85%
    18:00 -1°C° 0 mm 0 mps 692 mmHg 84%
    19:00 0°C° 0 mm 1 mps 692 mmHg 84%
    20:00 0°C° 0 mm 1 mps 693 mmHg 82%
    21:00 0°C° 0 mm 1 mps 693 mmHg 81%
    22:00 -1°C° 0 mm 0 mps 693 mmHg 79%
    23:00 -1°C° 0 mm 0 mps 693 mmHg 80%

    14 December, Wednesday

    Time Temperature Precipitation Wind Pressure Humidity
    00:00 -1°C° 0 mm 0 mps 693 mmHg 80%
    01:00 -1°C° 0 mm 0 mps 692 mmHg 81%
    02:00 -2°C° 0 mm 0 mps 692 mmHg 81%
    03:00 -2°C° 0 mm 0 mps 692 mmHg 80%
    04:00 -2°C° 0 mm 0 mps 692 mmHg 80%
    05:00 -2°C° 0 mm 0 mps 692 mmHg 79%
    06:00 -1°C° 0 mm 1 mps 692 mmHg 79%
    07:00 -1°C° 0 mm 1 mps 693 mmHg 78%
    08:00 +1°C° 0 mm 1 mps 693 mmHg 72%
    09:00 +2°C° 0 mm 1 mps 694 mmHg 66%
    10:00 +4°C° 0 mm 1 mps 694 mmHg 60%
    11:00 +3°C° 0 mm 0 mps 694 mmHg 58%
    12:00 +4°C° 0 mm 0 mps 694 mmHg 57%
    13:00 +5°C° 0 mm 0 mps 694 mmHg 55%
    14:00 +4°C° 0 mm 1 mps 694 mmHg 62%
    15:00 +3°C° 0 mm 1 mps 694 mmHg 70%
    16:00 +1°C° 0 mm 1 mps 694 mmHg 77%
    17:00 +1°C° 0 mm 1 mps 694 mmHg 79%
    18:00 0°C° 0 mm 1 mps 694 mmHg 81%
    19:00 0°C° 0 mm 1 mps 694 mmHg 83%
    20:00 0°C° 0 mm 1 mps 695 mmHg 84%
    21:00 0°C° 0 mm 1 mps 695 mmHg 85%
    22:00 0°C° 0 mm 1 mps 695 mmHg 86%
    23:00 0°C° 0 mm 1 mps 695 mmHg 87%
    Show more